sat.trackr.live / text

‹ back to catalog

STARLINK-35919

NORAD 66888 · 2025-283L

PAYLOAD ACTIVE UNKNOWN

§ Identity

Operator
Country
US
Launch date
2025-12-04
Launch site
AFWTR
Launch vehicle
Mass (kg)
RCS (m²)

Purposes: comms

External: N2YO · Heavens-Above · Gunter

§ Orbital elements

Epoch: 2026-05-25T04:12:45.241632Z

Period
94.18 min
Inclination
53.1590°
Eccentricity
0.0007830
Mean motion
15.29066758 rev/d
Perigee alt
473.2 km
Apogee alt
484.0 km
Semi-major
6,856.7 km
B*
-2.0818e-2
RAAN
28.9579°
Arg perigee
114.2783°
Mean anomaly
245.9036°
Rev number
2,755

§ Raw data

STARLINK-359191 66888U 25283L   26145.17552363 -.00554359  00000+0 -20818-1 0  99982 66888  53.1590  28.9579 0007830 114.2783 245.9036 15.29066758 27552

JSON: /api/v1/satellites/66888 · /tle

For live sub-satellite position, see the globe view (requires WebGL).

§ Visibility from observer

Set your observer location to see the next 7 days of passes ≥ 10°. The values pass through the URL so the page stays shareable.

No JS? Fill the form by hand. The geolocation button needs JavaScript.